TimeEDT,TemperatureF,Dew PointF,Humidity,Sea Level PressureIn,VisibilityMPH,Wind Direction,Wind SpeedMPH,Gust SpeedMPH,PrecipitationIn,Events,Conditions,WindDirDegrees,DateUTC
12:15 AM,66.2,64.4,94,29.88,9.0,SW,5.8,-,N/A,,Clear,230,2013-09-12 04:15:00
12:55 AM,66.2,62.6,88,29.88,10.0,WSW,6.9,-,N/A,,Clear,250,2013-09-12 04:55:00
1:15 AM,66.2,62.6,88,29.87,10.0,WSW,3.5,-,N/A,,Clear,250,2013-09-12 05:15:00
1:35 AM,66.2,62.6,88,29.87,10.0,SW,4.6,-,N/A,,Clear,230,2013-09-12 05:35:00
1:55 AM,66.2,62.6,88,29.88,10.0,WSW,5.8,-,N/A,,Clear,240,2013-09-12 05:55:00
2:35 AM,66.2,62.6,88,29.88,10.0,WSW,4.6,-,N/A,,Scattered Clouds,240,2013-09-12 06:35:00
2:55 AM,66.2,62.6,88,29.88,10.0,West,3.5,-,N/A,,Overcast,260,2013-09-12 06:55:00
3:15 AM,64.4,60.8,88,29.88,6.0,NNE,4.6,-,N/A,,Overcast,20,2013-09-12 07:15:00
3:35 AM,64.4,60.8,88,29.88,5.0,Calm,Calm,-,N/A,,Mostly Cloudy,0,2013-09-12 07:35:00
3:55 AM,64.4,60.8,88,29.88,5.0,Calm,Calm,-,N/A,,Overcast,0,2013-09-12 07:55:00
4:15 AM,64.4,60.8,88,29.87,1.5,Calm,Calm,-,N/A,,Mostly Cloudy,0,2013-09-12 08:15:00
4:35 AM,64.4,60.8,88,29.86,1.0,NE,3.5,-,N/A,,Mostly Cloudy,40,2013-09-12 08:35:00
4:55 AM,62.6,60.8,94,29.86,1.8,Calm,Calm,-,N/A,,Clear,0,2013-09-12 08:55:00
5:15 AM,62.6,60.8,94,29.86,3.0,Calm,Calm,-,N/A,,Mostly Cloudy,0,2013-09-12 09:15:00
5:35 AM,62.6,60.8,94,29.86,4.0,Calm,Calm,-,N/A,,Overcast,0,2013-09-12 09:35:00
6:15 AM,62.6,59.0,88,29.84,0.2,Calm,Calm,-,N/A,,Overcast,0,2013-09-12 10:15:00
6:35 AM,62.6,59.0,88,29.85,1.0,Calm,Calm,-,N/A,,Overcast,0,2013-09-12 10:35:00
6:55 AM,62.6,60.8,94,29.86,1.5,SW,4.6,-,N/A,,Overcast,220,2013-09-12 10:55:00
7:15 AM,64.4,60.8,88,29.84,1.5,SE,4.6,-,N/A,,Overcast,140,2013-09-12 11:15:00
7:35 AM,64.4,62.6,94,29.86,4.0,SW,5.8,-,N/A,,Mostly Cloudy,230,2013-09-12 11:35:00
7:55 AM,66.2,62.6,88,29.87,5.0,Calm,Calm,-,N/A,,Overcast,0,2013-09-12 11:55:00
8:15 AM,66.2,62.6,88,29.87,5.0,SW,4.6,-,N/A,,Overcast,220,2013-09-12 12:15:00
8:35 AM,66.2,62.6,88,29.86,7.0,South,4.6,-,N/A,,Overcast,170,2013-09-12 12:35:00
8:55 AM,66.2,62.6,88,29.87,9.0,Calm,Calm,-,N/A,,Overcast,0,2013-09-12 12:55:00
9:15 AM,68.0,64.4,88,29.86,8.0,Calm,Calm,-,N/A,,Overcast,0,2013-09-12 13:15:00
9:35 AM,68.0,64.4,88,29.85,10.0,Calm,Calm,-,N/A,,Overcast,0,2013-09-12 13:35:00
9:55 AM,69.8,64.4,83,29.84,10.0,South,3.5,-,N/A,,Overcast,180,2013-09-12 13:55:00
10:15 AM,71.6,64.4,78,29.83,10.0,South,5.8,-,N/A,,Overcast,170,2013-09-12 14:15:00
10:35 AM,71.6,64.4,78,29.82,10.0,SW,4.6,-,N/A,,Overcast,220,2013-09-12 14:35:00
10:56 AM,71.6,64.4,78,29.82,10.0,South,3.5,-,N/A,,Overcast,190,2013-09-12 14:56:00
11:15 AM,69.8,64.4,83,29.81,10.0,South,6.9,-,N/A,,Overcast,180,2013-09-12 15:15:00
11:35 AM,69.8,66.2,88,29.80,10.0,SSE,6.9,-,N/A,,Mostly Cloudy,160,2013-09-12 15:35:00
11:55 AM,71.6,66.2,83,29.79,10.0,South,5.8,-,N/A,,Mostly Cloudy,170,2013-09-12 15:55:00
12:15 PM,69.8,66.2,88,29.79,9.0,SSE,3.5,-,0.01,,Mostly Cloudy,160,2013-09-12 16:15:00
12:35 PM,69.8,66.2,88,29.79,7.0,South,5.8,-,0.03,,Overcast,190,2013-09-12 16:35:00
12:55 PM,69.8,66.2,88,29.80,7.0,SW,4.6,-,0.09,,Overcast,220,2013-09-12 16:55:00
1:15 PM,69.8,64.4,83,29.78,8.0,South,8.1,-,0.07,,Overcast,180,2013-09-12 17:15:00
1:35 PM,69.8,64.4,83,29.76,5.0,SSE,5.8,-,0.17,,Overcast,160,2013-09-12 17:35:00
1:55 PM,69.8,64.4,83,29.76,9.0,South,6.9,-,0.23,,Overcast,190,2013-09-12 17:55:00
2:15 PM,69.8,64.4,83,29.76,8.0,South,10.4,-,0.01,,Mostly Cloudy,190,2013-09-12 18:15:00
2:35 PM,68.0,64.4,88,29.75,8.0,SSW,5.8,-,0.07,,Overcast,210,2013-09-12 18:35:00
2:55 PM,68.0,64.4,88,29.74,3.0,South,6.9,-,0.24,,Mostly Cloudy,170,2013-09-12 18:55:00
3:15 PM,68.0,64.4,88,29.74,8.0,South,5.8,-,0.05,,Overcast,170,2013-09-12 19:15:00
3:35 PM,68.0,64.4,88,29.73,9.0,Calm,Calm,-,0.06,,Overcast,0,2013-09-12 19:35:00
3:55 PM,68.0,64.4,88,29.73,9.0,West,4.6,-,0.08,,Overcast,280,2013-09-12 19:55:00
4:15 PM,68.0,64.4,88,29.72,3.0,WNW,4.6,-,0.25,,Overcast,300,2013-09-12 20:15:00
4:35 PM,68.0,64.4,88,29.70,2.0,Calm,Calm,-,0.48,,Overcast,0,2013-09-12 20:35:00
4:55 PM,68.0,64.4,88,29.69,7.0,SSE,6.9,-,0.49,,Overcast,160,2013-09-12 20:55:00
5:15 PM,66.2,62.6,88,29.70,10.0,South,3.5,-,N/A,,Overcast,180,2013-09-12 21:15:00
5:35 PM,66.2,62.6,88,29.70,10.0,SW,4.6,-,N/A,,Overcast,220,2013-09-12 21:35:00
5:55 PM,66.2,62.6,88,29.69,10.0,SSE,3.5,-,N/A,,Overcast,160,2013-09-12 21:55:00
6:15 PM,66.2,62.6,88,29.69,10.0,Calm,Calm,-,N/A,,Overcast,0,2013-09-12 22:15:00
6:35 PM,66.2,62.6,88,29.68,10.0,Calm,Calm,-,N/A,,Overcast,0,2013-09-12 22:35:00
6:55 PM,64.4,60.8,88,29.66,10.0,SSE,3.5,-,N/A,,Overcast,160,2013-09-12 22:55:00
7:15 PM,64.4,60.8,88,29.68,10.0,West,3.5,-,N/A,,Overcast,260,2013-09-12 23:15:00
7:35 PM,64.4,60.8,88,29.68,10.0,Calm,Calm,-,N/A,,Mostly Cloudy,0,2013-09-12 23:35:00
7:55 PM,64.4,62.6,94,29.67,10.0,Calm,Calm,-,N/A,,Mostly Cloudy,0,2013-09-12 23:55:00
8:15 PM,64.4,62.6,94,29.67,10.0,Calm,Calm,-,N/A,,Overcast,0,2013-09-13 00:15:00
8:55 PM,64.4,62.6,94,29.67,7.0,SW,3.5,-,0.01,,Unknown,220,2013-09-13 00:55:00
9:15 PM,66.2,62.6,88,29.66,7.0,Calm,Calm,-,0.06,Thunderstorm,Overcast,0,2013-09-13 01:15:00
9:35 PM,66.2,62.6,88,29.64,4.0,Calm,Calm,-,0.16,,Overcast,0,2013-09-13 01:35:00
9:55 PM,66.2,62.6,88,29.63,8.0,South,3.5,-,0.19,,Overcast,170,2013-09-13 01:55:00
10:15 PM,66.2,62.6,88,29.63,5.0,SSE,3.5,-,0.02,,Overcast,160,2013-09-13 02:15:00
10:35 PM,66.2,62.6,88,29.63,5.0,South,3.5,-,0.04,,Overcast,170,2013-09-13 02:35:00
10:55 PM,66.2,62.6,88,29.62,6.0,South,5.8,-,0.05,,Overcast,180,2013-09-13 02:55:00
11:15 PM,66.2,62.6,88,29.60,7.0,SE,4.6,-,N/A,,Overcast,140,2013-09-13 03:15:00
11:35 PM,66.2,62.6,88,29.59,7.0,SSW,4.6,-,N/A,,Overcast,210,2013-09-13 03:35:00
11:55 PM,66.2,62.6,88,29.60,7.0,South,3.5,-,0.01,,Overcast,190,2013-09-13 03:55:00